| time (UTC) | temp F | wind direction | speed MPH | gust MPH | rain 1hr in | rain 24hr in | rain mn in | humidity % | barometer mb |
| 20260901141015 | 60 | 140 | 0.0 | 0.0 | 0.00 | 0.00 | 0.00 | 99 | 1015.3 |
| 20260901140514 | 59 | 139 | 0.0 | 0.0 | 0.00 | 0.00 | 0.00 | 99 | 1015.0 |
| 20260901140009 | 59 | 139 | 0.0 | 0.0 | 0.00 | 0.00 | 0.00 | 99 | 1014.9 |
| 20260901135502 | 59 | 140 | 0.0 | 0.0 | 0.00 | 0.00 | 0.00 | 99 | 1015.0 |
| 20260901134958 | 58 | 140 | 0.0 | 0.0 | 0.00 | 0.00 | 0.00 | 99 | 1015.0 |
| 20260901134453 | 58 | 140 | 0.0 | 0.0 | 0.00 | 0.00 | 0.00 | 99 | 1014.9 |
| 20260901133948 | 58 | 140 | 0.0 | 0.0 | 0.00 | 0.00 | 0.00 | 99 | 1014.9 |
| 20260901133447 | 57 | 140 | 0.0 | 0.0 | 0.00 | 0.00 | 0.00 | 99 | 1014.6 |
| 20260901132946 | 57 | 140 | 0.0 | 0.0 | 0.00 | 0.00 | 0.00 | 99 | 1014.8 |
| 20260901132446 | 57 | 140 | 0.0 | 0.0 | 0.00 | 0.00 | 0.00 | 99 | 1014.6 |
| 20260901131945 | 57 | 140 | 0.0 | 1.0 | 0.00 | 0.00 | 0.00 | 99 | 1014.5 |
| 20260901131439 | 58 | 140 | 0.0 | 0.0 | 0.00 | 0.00 | 0.00 | 99 | 1014.5 |
| 20260901130934 | 58 | 141 | 0.0 | 0.0 | 0.00 | 0.00 | 0.00 | 99 | 1014.4 |
| 20260901130430 | 58 | 140 | 0.0 | 0.0 | 0.00 | 0.00 | 0.00 | 99 | 1014.6 |
| 20260901125927 | 58 | 140 | 0.0 | 0.0 | 0.00 | 0.00 | 0.00 | 99 | 1014.5 |
| 20260901125426 | 59 | 141 | 0.0 | 0.0 | 0.00 | 0.00 | 0.00 | 99 | 1014.3 |
| 20260901124921 | 58 | 140 | 0.0 | 0.0 | 0.00 | 0.00 | 0.00 | 99 | 1014.3 |
| 20260901124417 | 58 | 140 | 0.0 | 0.0 | 0.00 | 0.00 | 0.00 | 99 | 1014.3 |
| 20260901123911 | 58 | 140 | 0.0 | 0.0 | 0.00 | 0.00 | 0.00 | 99 | 1014.2 |
| 20260901123406 | 58 | 140 | 0.0 | 0.0 | 0.00 | 0.00 | 0.00 | 99 | 1014.4 |
| 20260901122904 | 58 | 140 | 0.0 | 0.0 | 0.00 | 0.00 | 0.00 | 98 | 1014.3 |
| 20260901122359 | 58 | 140 | 0.0 | 0.0 | 0.00 | 0.00 | 0.00 | 98 | 1014.3 |
| 20260901121858 | 58 | 140 | 0.0 | 0.0 | 0.00 | 0.00 | 0.00 | 98 | 1014.1 |
| 20260901121353 | 58 | 140 | 0.0 | 0.0 | 0.00 | 0.00 | 0.00 | 98 | 1014.3 |
| 20260901120849 | 59 | 140 | 0.0 | 0.0 | 0.00 | 0.00 | 0.00 | 98 | 1014.0 |
| 20260901120343 | 59 | 140 | 0.0 | 0.0 | 0.00 | 0.00 | 0.00 | 98 | 1014.3 |
| 20260901115839 | 59 | 140 | 0.0 | 0.0 | 0.00 | 0.00 | 0.00 | 98 | 1014.2 |
| 20260901115334 | 59 | 140 | 0.0 | 0.0 | 0.00 | 0.00 | 0.00 | 98 | 1014.3 |
| 20260901114832 | 59 | 140 | 0.0 | 0.0 | 0.00 | 0.00 | 0.00 | 98 | 1014.1 |
| 20260901114331 | 59 | 140 | 0.0 | 0.0 | 0.00 | 0.00 | 0.00 | 98 | 1014.2 |
| 20260901113829 | 59 | 140 | 0.0 | 0.0 | 0.00 | 0.00 | 0.00 | 98 | 1014.5 |
| 20260901113329 | 60 | 140 | 0.0 | 1.0 | 0.00 | 0.00 | 0.00 | 98 | 1014.4 |
| 20260901112824 | 60 | 141 | 1.0 | 1.0 | 0.00 | 0.00 | 0.00 | 98 | 1014.5 |
| 20260901112324 | 60 | 135 | 0.0 | 0.0 | 0.00 | 0.00 | 0.00 | 98 | 1014.5 |
| 20260901111819 | 59 | 135 | 0.0 | 0.0 | 0.00 | 0.00 | 0.00 | 98 | 1014.3 |
| 20260901111318 | 59 | 135 | 0.0 | 0.0 | 0.00 | 0.00 | 0.00 | 98 | 1014.3 |
| 20260901110817 | 59 | 135 | 0.0 | 0.0 | 0.00 | 0.00 | 0.00 | 98 | 1014.6 |
| 20260901110312 | 59 | 135 | 0.0 | 0.0 | 0.00 | 0.00 | 0.00 | 98 | 1014.3 |
| 20260901105808 | 60 | 134 | 1.0 | 1.0 | 0.00 | 0.00 | 0.00 | 97 | 1014.2 |
| 20260901105305 | 60 | 138 | 0.0 | 0.0 | 0.00 | 0.00 | 0.00 | 98 | 1014.4 |
| 20260901104759 | 60 | 137 | 0.0 | 0.0 | 0.00 | 0.00 | 0.00 | 97 | 1014.5 |
| 20260901104254 | 60 | 137 | 0.0 | 0.0 | 0.00 | 0.00 | 0.00 | 97 | 1014.5 |
| 20260901103749 | 60 | 139 | 0.0 | 0.0 | 0.00 | 0.00 | 0.00 | 97 | 1014.3 |
| 20260901103244 | 60 | 139 | 0.0 | 0.0 | 0.00 | 0.00 | 0.00 | 97 | 1014.5 |
| 20260901102739 | 60 | 139 | 0.0 | 0.0 | 0.00 | 0.00 | 0.00 | 97 | 1014.3 |
| 20260901102239 | 61 | 139 | 0.0 | 0.0 | 0.00 | 0.00 | 0.00 | 97 | 1014.3 |
| 20260901101735 | 61 | 139 | 0.0 | 0.0 | 0.00 | 0.00 | 0.00 | 97 | 1014.4 |
| 20260901101234 | 62 | 139 | 0.0 | 0.0 | 0.00 | 0.00 | 0.00 | 97 | 1014.3 |
| 20260901100733 | 62 | 138 | 0.0 | 0.0 | 0.00 | 0.00 | 0.00 | 97 | 1014.2 |
| 20260901100228 | 62 | 138 | 0.0 | 1.0 | 0.00 | 0.00 | 0.00 | 97 | 1014.4 |
| 20260901095727 | 61 | 136 | 0.0 | 0.0 | 0.00 | 0.00 | 0.00 | 97 | 1014.5 |
| 20260901095224 | 61 | 131 | 0.0 | 1.0 | 0.00 | 0.00 | 0.00 | 97 | 1014.5 |
| 20260901094719 | 62 | 143 | 0.0 | 0.0 | 0.00 | 0.00 | 0.00 | 97 | 1014.4 |
| 20260901094214 | 63 | 143 | 0.0 | 0.0 | 0.00 | 0.00 | 0.00 | 97 | 1014.3 |
| 20260901093709 | 63 | 174 | 0.0 | 0.0 | 0.00 | 0.00 | 0.00 | 97 | 1014.2 |
| 20260901093208 | 62 | 178 | 0.0 | 0.0 | 0.00 | 0.00 | 0.00 | 98 | 1014.4 |
| 20260901092704 | 61 | 134 | 0.0 | 1.0 | 0.00 | 0.00 | 0.00 | 97 | 1014.3 |
| 20260901092200 | 61 | 134 | 0.0 | 0.0 | 0.00 | 0.00 | 0.00 | 97 | 1014.5 |
| 20260901091655 | 61 | 134 | 0.0 | 0.0 | 0.00 | 0.00 | 0.00 | 97 | 1014.3 |
| 20260901091150 | 60 | 134 | 0.0 | 0.0 | 0.00 | 0.00 | 0.00 | 97 | 1014.3 |
| 20260901090645 | 60 | 135 | 0.0 | 0.0 | 0.00 | 0.00 | 0.00 | 97 | 1014.6 |
| 20260901090140 | 59 | 134 | 1.0 | 1.0 | 0.00 | 0.00 | 0.00 | 97 | 1014.5 |
| 20260901085636 | 59 | 135 | 1.0 | 1.0 | 0.00 | 0.00 | 0.00 | 96 | 1014.4 |
| 20260901085131 | 59 | 135 | 0.0 | 0.0 | 0.00 | 0.00 | 0.00 | 97 | 1014.7 |
| 20260901084627 | 59 | 135 | 1.0 | 1.0 | 0.00 | 0.00 | 0.00 | 96 | 1014.7 |
| 20260901084124 | 59 | 138 | 0.0 | 0.0 | 0.00 | 0.00 | 0.00 | 96 | 1014.5 |
| 20260901083618 | 59 | 138 | 0.0 | 0.0 | 0.00 | 0.00 | 0.00 | 96 | 1014.5 |
| 20260901083116 | 59 | 138 | 0.0 | 0.0 | 0.00 | 0.00 | 0.00 | 96 | 1014.5 |
| 20260901082611 | 60 | 138 | 0.0 | 0.0 | 0.00 | 0.00 | 0.00 | 96 | 1014.2 |
| 20260901082107 | 60 | 138 | 0.0 | 0.0 | 0.00 | 0.00 | 0.00 | 96 | 1014.7 |
| 20260901081601 | 60 | 138 | 1.0 | 1.0 | 0.00 | 0.00 | 0.00 | 96 | 1014.5 |
| 20260901081055 | 60 | 138 | 0.0 | 0.0 | 0.00 | 0.00 | 0.00 | 96 | 1014.4 |
| 20260901080550 | 60 | 138 | 0.0 | 0.0 | 0.00 | 0.00 | 0.00 | 96 | 1014.4 |
| 20260901080049 | 60 | 138 | 0.0 | 0.0 | 0.00 | 0.00 | 0.00 | 96 | 1014.7 |
| 20260901075545 | 60 | 138 | 0.0 | 0.0 | 0.00 | 0.00 | 0.00 | 96 | 1014.6 |
| 20260901075044 | 60 | 140 | 1.0 | 1.0 | 0.00 | 0.00 | 0.00 | 96 | 1014.7 |
| 20260901074544 | 60 | 140 | 0.0 | 0.0 | 0.00 | 0.00 | 0.00 | 96 | 1014.6 |
| 20260901074039 | 60 | 140 | 0.0 | 0.0 | 0.00 | 0.00 | 0.00 | 95 | 1014.5 |
| 20260901073536 | 60 | 140 | 0.0 | 0.0 | 0.00 | 0.00 | 0.00 | 95 | 1014.3 |
| 20260901073030 | 61 | 141 | 0.0 | 0.0 | 0.00 | 0.00 | 0.00 | 95 | 1014.6 |
| 20260901072525 | 60 | 140 | 0.0 | 0.0 | 0.00 | 0.00 | 0.00 | 95 | 1014.7 |
| 20260901072020 | 60 | 140 | 0.0 | 0.0 | 0.00 | 0.00 | 0.00 | 95 | 1014.8 |
| 20260901071520 | 60 | 140 | 0.0 | 1.0 | 0.00 | 0.00 | 0.00 | 95 | 1014.5 |
| 20260901071018 | 60 | 140 | 1.0 | 1.0 | 0.00 | 0.00 | 0.00 | 95 | 1014.6 |
| 20260901070514 | 61 | 141 | 0.0 | 1.0 | 0.00 | 0.00 | 0.00 | 95 | 1014.3 |
| 20260901070009 | 61 | 140 | 0.0 | 0.0 | 0.00 | 0.00 | 0.00 | 94 | 1014.5 |
| 20260901065504 | 61 | 140 | 0.0 | 0.0 | 0.00 | 0.00 | 0.00 | 94 | 1014.9 |
| 20260901064958 | 61 | 140 | 0.0 | 0.0 | 0.00 | 0.00 | 0.00 | 94 | 1014.6 |
| 20260901064454 | 61 | 142 | 0.0 | 0.0 | 0.00 | 0.00 | 0.00 | 94 | 1014.4 |
| 20260901063951 | 61 | 142 | 0.0 | 0.0 | 0.00 | 0.00 | 0.00 | 94 | 1014.5 |
| 20260901063448 | 61 | 143 | 0.0 | 0.0 | 0.00 | 0.00 | 0.00 | 94 | 1014.6 |
| 20260901062944 | 61 | 142 | 0.0 | 0.0 | 0.00 | 0.00 | 0.00 | 94 | 1014.3 |
| 20260901062439 | 61 | 142 | 0.0 | 1.0 | 0.00 | 0.00 | 0.00 | 93 | 1014.5 |
| 20260901061935 | 62 | 154 | 0.0 | 1.0 | 0.00 | 0.00 | 0.00 | 93 | 1014.5 |
| 20260901061431 | 62 | 177 | 0.0 | 0.0 | 0.00 | 0.00 | 0.00 | 93 | 1014.5 |
| 20260901060925 | 62 | 175 | 0.0 | 0.0 | 0.00 | 0.00 | 0.00 | 93 | 1014.5 |
| 20260901060421 | 62 | 175 | 0.0 | 0.0 | 0.00 | 0.00 | 0.00 | 92 | 1014.4 |
| 20260901055920 | 62 | 177 | 0.0 | 0.0 | 0.00 | 0.00 | 0.00 | 92 | 1014.4 |
| 20260901055417 | 63 | 177 | 1.0 | 1.0 | 0.00 | 0.00 | 0.00 | 91 | 1014.4 |
| 20260901054913 | 63 | 183 | 0.0 | 0.0 | 0.00 | 0.00 | 0.00 | 92 | 1014.4 |
| 20260901054410 | 62 | 161 | 0.0 | 0.0 | 0.00 | 0.00 | 0.00 | 91 | 1014.3 |
| 20260901053906 | 62 | 149 | 1.0 | 1.0 | 0.00 | 0.00 | 0.00 | 90 | 1014.4 |
| 20260901053401 | 63 | 186 | 1.0 | 1.0 | 0.00 | 0.00 | 0.00 | 91 | 1014.5 |
| 20260901052856 | 62 | 136 | 1.0 | 1.0 | 0.00 | 0.00 | 0.00 | 90 | 1014.4 |
| 20260901052352 | 62 | 136 | 0.0 | 1.0 | 0.00 | 0.00 | 0.00 | 89 | 1014.3 |
| 20260901051850 | 63 | 135 | 1.0 | 1.0 | 0.00 | 0.00 | 0.00 | 88 | 1014.2 |
| 20260901051346 | 63 | 138 | 0.0 | 0.0 | 0.00 | 0.00 | 0.00 | 88 | 1014.0 |
| 20260901050840 | 63 | 137 | 1.0 | 1.0 | 0.00 | 0.00 | 0.00 | 88 | 1014.4 |
| 20260901050336 | 63 | 134 | 0.0 | 0.0 | 0.00 | 0.00 | 0.00 | 89 | 1014.3 |
| 20260901045831 | 63 | 134 | 0.0 | 1.0 | 0.00 | 0.00 | 0.00 | 89 | 1014.3 |
| 20260901045330 | 63 | 134 | 1.0 | 1.0 | 0.00 | 0.00 | 0.00 | 89 | 1014.2 |
| 20260901044826 | 63 | 135 | 0.0 | 0.0 | 0.00 | 0.00 | 0.00 | 89 | 1014.2 |
| 20260901044322 | 64 | 134 | 0.0 | 0.0 | 0.00 | 0.00 | 0.00 | 90 | 1014.1 |
| 20260901043818 | 64 | 160 | 0.0 | 0.0 | 0.00 | 0.00 | 0.00 | 90 | 1014.1 |
| 20260901043314 | 65 | 159 | 0.0 | 0.0 | 0.00 | 0.00 | 0.00 | 90 | 1014.2 |
| 20260901042812 | 66 | 159 | 0.0 | 0.0 | 0.00 | 0.00 | 0.00 | 90 | 1014.2 |
| 20260901042308 | 66 | 159 | 1.0 | 1.0 | 0.00 | 0.00 | 0.00 | 90 | 1014.2 |
| 20260901041803 | 67 | 200 | 1.0 | 1.0 | 0.00 | 0.00 | 0.00 | 91 | 1014.3 |
| 20260901041258 | 67 | 164 | 0.0 | 0.0 | 0.00 | 0.00 | 0.00 | 91 | 1014.3 |
| 20260901040755 | 68 | 165 | 0.0 | 0.0 | 0.00 | 0.00 | 0.00 | 91 | 1014.3 |
| 20260901040251 | 68 | 159 | 0.0 | 1.0 | 0.00 | 0.00 | 0.00 | 91 | 1014.2 |
| 20260901035745 | 68 | 133 | 0.0 | 0.0 | 0.00 | 0.00 | 0.00 | 91 | 1014.3 |
| 20260901035244 | 68 | 140 | 1.0 | 1.0 | 0.00 | 0.00 | 0.00 | 90 | 1014.1 |
| 20260901034743 | 68 | 164 | 0.0 | 0.0 | 0.00 | 0.00 | 0.00 | 90 | 1013.9 |
| 20260901034238 | 68 | 150 | 0.0 | 1.0 | 0.00 | 0.00 | 0.00 | 90 | 1013.8 |
| 20260901033737 | 68 | 148 | 0.0 | 1.0 | 0.00 | 0.00 | 0.00 | 89 | 1013.7 |
| 20260901033237 | 68 | 121 | 1.0 | 1.0 | 0.00 | 0.00 | 0.00 | 89 | 1013.5 |
| 20260901032730 | 68 | 154 | 0.0 | 0.0 | 0.00 | 0.00 | 0.00 | 88 | 1013.7 |
| 20260901032224 | 68 | 137 | 2.0 | 2.0 | 0.00 | 0.00 | 0.00 | 88 | 1013.6 |
| 20260901031720 | 69 | 157 | 3.0 | 3.0 | 0.00 | 0.00 | 0.00 | 88 | 1013.6 |
| 20260901031216 | 69 | 124 | 2.0 | 2.0 | 0.00 | 0.00 | 0.00 | 87 | 1013.4 |
| 20260901030710 | 69 | 162 | 0.0 | 1.0 | 0.00 | 0.00 | 0.00 | 87 | 1013.2 |
| 20260901030205 | 69 | 171 | 3.0 | 3.0 | 0.00 | 0.00 | 0.00 | 86 | 1013.3 |
| 20260901025659 | 69 | 136 | 1.0 | 2.0 | 0.00 | 0.00 | 0.00 | 86 | 1013.2 |
| 20260901025154 | 69 | 125 | 3.0 | 5.0 | 0.00 | 0.00 | 0.00 | 85 | 1013.1 |
| 20260901024648 | 70 | 108 | 4.0 | 6.0 | 0.00 | 0.00 | 0.00 | 84 | 1013.1 |
| 20260901024148 | 70 | 146 | 4.0 | 5.0 | 0.00 | 0.00 | 0.00 | 83 | 1013.1 |
| 20260901023646 | 70 | 129 | 3.0 | 3.0 | 0.00 | 0.00 | 0.00 | 82 | 1013.1 |
| 20260901023141 | 71 | 138 | 5.0 | 7.0 | 0.00 | 0.00 | 0.00 | 81 | 1012.8 |
| 20260901022636 | 71 | 160 | 1.0 | 1.0 | 0.00 | 0.00 | 0.00 | 80 | 1013.0 |
| 20260901022131 | 71 | 182 | 1.0 | 1.0 | 0.00 | 0.00 | 0.00 | 79 | 1012.8 |
| 20260901021627 | 72 | 107 | 2.0 | 2.0 | 0.00 | 0.00 | 0.00 | 78 | 1012.9 |
| 20260901021122 | 72 | 149 | 1.0 | 1.0 | 0.00 | 0.00 | 0.00 | 77 | 1012.6 |
| 20260901020618 | 72 | 139 | 4.0 | 5.0 | 0.00 | 0.00 | 0.00 | 76 | 1012.4 |
| 20260901020113 | 73 | 138 | 3.0 | 3.0 | 0.00 | 0.00 | 0.00 | 76 | 1012.6 |
| 20260901015608 | 73 | 146 | 3.0 | 3.0 | 0.00 | 0.00 | 0.00 | 75 | 1012.6 |
| 20260901015108 | 73 | 130 | 1.0 | 1.0 | 0.00 | 0.00 | 0.00 | 75 | 1012.4 |
| 20260901014603 | 74 | 137 | 1.0 | 2.0 | 0.00 | 0.00 | 0.00 | 74 | 1012.3 |
| 20260901014059 | 74 | 152 | 1.0 | 2.0 | 0.00 | 0.00 | 0.00 | 74 | 1012.5 |
| 20260901013554 | 75 | 106 | 3.0 | 3.0 | 0.00 | 0.00 | 0.00 | 73 | 1012.6 |
| 20260901013050 | 76 | 130 | 2.0 | 3.0 | 0.00 | 0.00 | 0.00 | 71 | 1012.5 |
| 20260901012550 | 76 | 144 | 1.0 | 2.0 | 0.00 | 0.00 | 0.00 | 69 | 1012.2 |
| 20260901012045 | 76 | 144 | 5.0 | 6.0 | 0.00 | 0.00 | 0.00 | 68 | 1012.2 |
| 20260901011542 | 76 | 150 | 5.0 | 6.0 | 0.00 | 0.00 | 0.00 | 67 | 1012.6 |
| 20260901011039 | 76 | 153 | 4.0 | 6.0 | 0.00 | 0.00 | 0.00 | 67 | 1012.5 |
| 20260901010534 | 77 | 156 | 5.0 | 6.0 | 0.00 | 0.00 | 0.00 | 66 | 1012.5 |
| 20260901010033 | 77 | 124 | 4.0 | 5.0 | 0.00 | 0.00 | 0.00 | 65 | 1012.7 |
| 20260901005528 | 78 | 116 | 3.0 | 5.0 | 0.00 | 0.00 | 0.00 | 63 | 1012.7 |
| 20260901005024 | 78 | 119 | 6.0 | 7.0 | 0.00 | 0.00 | 0.00 | 62 | 1012.7 |
| 20260901004523 | 78 | 105 | 7.0 | 8.0 | 0.00 | 0.00 | 0.00 | 61 | 1012.6 |
| 20260901004018 | 79 | 168 | 2.0 | 2.0 | 0.00 | 0.00 | 0.00 | 63 | 1012.7 |
| 20260901003513 | 79 | 146 | 5.0 | 6.0 | 0.00 | 0.00 | 0.00 | 61 | 1012.7 |
| 20260901003011 | 79 | 109 | 3.0 | 3.0 | 0.00 | 0.00 | 0.00 | 58 | 1012.6 |
| 20260901002506 | 79 | 202 | 4.0 | 5.0 | 0.00 | 0.00 | 0.00 | 61 | 1012.6 |
| 20260901002001 | 80 | 102 | 4.0 | 5.0 | 0.00 | 0.00 | 0.00 | 60 | 1012.6 |
| 20260901001455 | 80 | 172 | 1.0 | 2.0 | 0.00 | 0.00 | 0.00 | 60 | 1012.5 |
| 20260901000951 | 79 | 90 | 3.0 | 3.0 | 0.00 | 0.00 | 0.00 | 63 | 1012.6 |
| 20260901000445 | 80 | 144 | 2.0 | 3.0 | 0.00 | 0.00 | 0.00 | 63 | 1012.5 |
| 20260831235944 | 80 | 122 | 3.0 | 3.0 | 0.00 | 0.00 | 0.00 | 62 | 1012.8 |
| 20260831235440 | 81 | 83 | 3.0 | 3.0 | 0.00 | 0.00 | 0.00 | 62 | 1012.8 |
| 20260831234935 | 81 | 181 | 3.0 | 5.0 | 0.00 | 0.00 | 0.00 | 61 | 1012.9 |
| 20260831234429 | 80 | 172 | 2.0 | 2.0 | 0.00 | 0.00 | 0.00 | 62 | 1012.7 |
| 20260831233925 | 80 | 183 | 3.0 | 3.0 | 0.00 | 0.00 | 0.00 | 60 | 1013.0 |
| 20260831233420 | 81 | 146 | 5.0 | 6.0 | 0.00 | 0.00 | 0.00 | 60 | 1012.8 |
| 20260831232916 | 82 | 183 | 6.0 | 8.0 | 0.00 | 0.00 | 0.00 | 59 | 1012.7 |
| 20260831232411 | 82 | 148 | 7.0 | 9.0 | 0.00 | 0.00 | 0.00 | 60 | 1012.7 |
| 20260831231907 | 82 | 127 | 5.0 | 7.0 | 0.00 | 0.00 | 0.00 | 59 | 1012.7 |
| 20260831231403 | 82 | 126 | 2.0 | 2.0 | 0.00 | 0.00 | 0.00 | 59 | 1012.6 |
| 20260831230859 | 82 | 184 | 2.0 | 3.0 | 0.00 | 0.00 | 0.00 | 59 | 1012.7 |
| 20260831230353 | 82 | 223 | 3.0 | 5.0 | 0.00 | 0.00 | 0.00 | 59 | 1013.1 |
| 20260831225847 | 82 | 86 | 4.0 | 6.0 | 0.00 | 0.00 | 0.00 | 58 | 1013.1 |
| 20260831225343 | 82 | 190 | 4.0 | 6.0 | 0.00 | 0.00 | 0.00 | 58 | 1012.9 |
| 20260831224838 | 81 | 175 | 3.0 | 3.0 | 0.00 | 0.00 | 0.00 | 60 | 1012.9 |
| 20260831224332 | 82 | 186 | 1.0 | 1.0 | 0.00 | 0.00 | 0.00 | 61 | 1012.9 |
| 20260831223827 | 82 | 175 | 2.0 | 2.0 | 0.00 | 0.00 | 0.00 | 60 | 1012.9 |
| 20260831223324 | 82 | 153 | 2.0 | 3.0 | 0.00 | 0.00 | 0.00 | 60 | 1013.0 |
| 20260831222820 | 81 | 198 | 1.0 | 2.0 | 0.00 | 0.00 | 0.00 | 59 | 1013.0 |
| 20260831222316 | 82 | 109 | 9.0 | 13.0 | 0.00 | 0.00 | 0.00 | 61 | 1013.1 |
| 20260831221811 | 82 | 96 | 6.0 | 8.0 | 0.00 | 0.00 | 0.00 | 60 | 1013.1 |
| 20260831221306 | 82 | 169 | 3.0 | 3.0 | 0.00 | 0.00 | 0.00 | 60 | 1013.3 |
| 20260831220806 | 82 | 137 | 5.0 | 8.0 | 0.00 | 0.00 | 0.00 | 60 | 1013.3 |
| 20260831220301 | 84 | 134 | 8.0 | 11.0 | 0.00 | 0.00 | 0.00 | 58 | 1013.2 |
| 20260831215756 | 82 | 64 | 6.0 | 7.0 | 0.00 | 0.00 | 0.00 | 59 | 1013.2 |
| 20260831215252 | 83 | 174 | 0.0 | 0.0 | 0.00 | 0.00 | 0.00 | 59 | 1012.9 |
| 20260831214749 | 83 | 130 | 8.0 | 9.0 | 0.00 | 0.00 | 0.00 | 57 | 1013.0 |
| 20260831214245 | 83 | 172 | 2.0 | 2.0 | 0.00 | 0.00 | 0.00 | 55 | 1013.2 |
| 20260831213741 | 83 | 132 | 4.0 | 7.0 | 0.00 | 0.00 | 0.00 | 57 | 1013.0 |
| 20260831213237 | 82 | 130 | 1.0 | 1.0 | 0.00 | 0.00 | 0.00 | 57 | 1013.1 |
| 20260831212732 | 83 | 130 | 7.0 | 9.0 | 0.00 | 0.00 | 0.00 | 55 | 1013.2 |
| 20260831212229 | 84 | 93 | 6.0 | 8.0 | 0.00 | 0.00 | 0.00 | 57 | 1013.1 |
| 20260831211727 | 84 | 140 | 2.0 | 2.0 | 0.00 | 0.00 | 0.00 | 58 | 1013.2 |
| 20260831211223 | 83 | 187 | 4.0 | 6.0 | 0.00 | 0.00 | 0.00 | 55 | 1013.5 |
| 20260831210723 | 84 | 164 | 7.0 | 9.0 | 0.00 | 0.00 | 0.00 | 56 | 1013.5 |
| 20260831210219 | 83 | 172 | 5.0 | 7.0 | 0.00 | 0.00 | 0.00 | 54 | 1013.6 |
| 20260831205718 | 84 | 102 | 8.0 | 9.0 | 0.00 | 0.00 | 0.00 | 54 | 1013.5 |
| 20260831205214 | 84 | 108 | 8.0 | 9.0 | 0.00 | 0.00 | 0.00 | 54 | 1013.5 |
| 20260831204709 | 83 | 53 | 5.0 | 8.0 | 0.00 | 0.00 | 0.00 | 56 | 1013.6 |
| 20260831204208 | 83 | 100 | 7.0 | 8.0 | 0.00 | 0.00 | 0.00 | 58 | 1013.5 |
| 20260831203707 | 84 | 77 | 4.0 | 7.0 | 0.00 | 0.00 | 0.00 | 58 | 1013.7 |
| 20260831203202 | 84 | 111 | 7.0 | 10.0 | 0.00 | 0.00 | 0.00 | 54 | 1013.3 |
| 20260831202700 | 83 | 113 | 5.0 | 8.0 | 0.00 | 0.00 | 0.00 | 56 | 1013.6 |
| 20260831202155 | 83 | 108 | 7.0 | 13.0 | 0.00 | 0.00 | 0.00 | 57 | 1013.3 |
| 20260831201654 | 83 | 96 | 9.0 | 11.0 | 0.00 | 0.00 | 0.00 | 56 | 1013.4 |
| 20260831201149 | 84 | 148 | 8.0 | 10.0 | 0.00 | 0.00 | 0.00 | 56 | 1013.5 |
| 20260831200645 | 84 | 109 | 2.0 | 3.0 | 0.00 | 0.00 | 0.00 | 58 | 1013.8 |
| 20260831200144 | 84 | 154 | 2.0 | 3.0 | 0.00 | 0.00 | 0.00 | 56 | 1013.5 |
| 20260831195640 | 83 | 168 | 7.0 | 8.0 | 0.00 | 0.00 | 0.00 | 59 | 1013.7 |
| 20260831195135 | 84 | 154 | 6.0 | 7.0 | 0.00 | 0.00 | 0.00 | 57 | 1013.6 |
| 20260831194630 | 83 | 179 | 7.0 | 9.0 | 0.00 | 0.00 | 0.00 | 59 | 1013.8 |
| 20260831194125 | 84 | 173 | 1.0 | 2.0 | 0.00 | 0.00 | 0.00 | 60 | 1013.6 |
| 20260831193620 | 84 | 169 | 5.0 | 8.0 | 0.00 | 0.00 | 0.00 | 58 | 1013.8 |
| 20260831193116 | 84 | 8 | 3.0 | 3.0 | 0.00 | 0.00 | 0.00 | 59 | 1013.9 |
| 20260831192610 | 84 | 134 | 8.0 | 9.0 | 0.00 | 0.00 | 0.00 | 60 | 1013.8 |
| 20260831192106 | 84 | 125 | 5.0 | 7.0 | 0.00 | 0.00 | 0.00 | 60 | 1013.8 |
| 20260831191602 | 84 | 51 | 8.0 | 10.0 | 0.00 | 0.00 | 0.00 | 60 | 1013.9 |
| 20260831191057 | 84 | 142 | 3.0 | 5.0 | 0.00 | 0.00 | 0.00 | 61 | 1014.0 |
| 20260831190552 | 84 | 135 | 6.0 | 9.0 | 0.00 | 0.00 | 0.00 | 61 | 1013.8 |
| 20260831190051 | 84 | 87 | 5.0 | 7.0 | 0.00 | 0.00 | 0.00 | 60 | 1013.8 |
| 20260831185547 | 84 | 62 | 4.0 | 6.0 | 0.00 | 0.00 | 0.00 | 61 | 1013.8 |
| 20260831185042 | 84 | 84 | 6.0 | 8.0 | 0.00 | 0.00 | 0.00 | 61 | 1014.1 |
| 20260831184536 | 83 | 119 | 3.0 | 3.0 | 0.00 | 0.00 | 0.00 | 62 | 1013.9 |
| 20260831184031 | 83 | 149 | 7.0 | 9.0 | 0.00 | 0.00 | 0.00 | 61 | 1013.9 |
| 20260831183530 | 82 | 85 | 2.0 | 2.0 | 0.00 | 0.00 | 0.00 | 62 | 1013.8 |
| 20260831183025 | 83 | 125 | 9.0 | 10.0 | 0.00 | 0.00 | 0.00 | 60 | 1013.8 |
| 20260831182519 | 84 | 122 | 7.0 | 9.0 | 0.00 | 0.00 | 0.00 | 58 | 1014.0 |
| 20260831182015 | 84 | 125 | 3.0 | 3.0 | 0.00 | 0.00 | 0.00 | 58 | 1013.7 |
| 20260831181510 | 84 | 102 | 4.0 | 6.0 | 0.00 | 0.00 | 0.00 | 57 | 1013.8 |
| 20260831181004 | 84 | 127 | 3.0 | 5.0 | 0.00 | 0.00 | 0.00 | 55 | 1013.9 |
| 20260831180459 | 84 | 148 | 2.0 | 3.0 | 0.00 | 0.00 | 0.00 | 56 | 1013.7 |
| 20260831175959 | 83 | 126 | 2.0 | 3.0 | 0.00 | 0.00 | 0.00 | 58 | 1014.0 |
| 20260831175455 | 82 | 3 | 3.0 | 3.0 | 0.00 | 0.00 | 0.00 | 60 | 1013.8 |
| 20260831174950 | 83 | 17 | 1.0 | 2.0 | 0.00 | 0.00 | 0.00 | 60 | 1013.8 |
| 20260831174446 | 81 | 154 | 2.0 | 2.0 | 0.00 | 0.00 | 0.00 | 62 | 1013.9 |
| 20260831173945 | 82 | 85 | 3.0 | 5.0 | 0.00 | 0.00 | 0.00 | 63 | 1014.0 |
| 20260831173444 | 81 | 10 | 1.0 | 1.0 | 0.00 | 0.00 | 0.00 | 64 | 1013.7 |
| 20260831172940 | 82 | 47 | 2.0 | 2.0 | 0.00 | 0.00 | 0.00 | 63 | 1013.9 |
| 20260831172435 | 82 | 20 | 2.0 | 3.0 | 0.00 | 0.00 | 0.00 | 64 | 1014.0 |
| 20260831171930 | 81 | 49 | 1.0 | 2.0 | 0.00 | 0.00 | 0.00 | 65 | 1013.8 |
| 20260831171426 | 81 | 109 | 1.0 | 2.0 | 0.00 | 0.00 | 0.00 | 66 | 1013.8 |
| 20260831170922 | 80 | 183 | 1.0 | 1.0 | 0.00 | 0.00 | 0.00 | 67 | 1013.5 |
| 20260831170418 | 81 | 69 | 2.0 | 3.0 | 0.00 | 0.00 | 0.00 | 66 | 1013.9 |
| 20260831165915 | 80 | 132 | 1.0 | 1.0 | 0.00 | 0.00 | 0.00 | 68 | 1013.7 |
| 20260831165411 | 79 | 133 | 3.0 | 5.0 | 0.00 | 0.00 | 0.00 | 70 | 1013.7 |
| 20260831164907 | 79 | 60 | 2.0 | 2.0 | 0.00 | 0.00 | 0.00 | 70 | 1013.7 |
| 20260831164403 | 78 | 55 | 2.0 | 2.0 | 0.00 | 0.00 | 0.00 | 71 | 1013.8 |
| 20260831163858 | 79 | 175 | 0.0 | 1.0 | 0.00 | 0.00 | 0.00 | 70 | 1013.9 |
| 20260831163354 | 78 | 167 | 0.0 | 0.0 | 0.00 | 0.00 | 0.00 | 73 | 1013.7 |
| 20260831162852 | 77 | 102 | 0.0 | 1.0 | 0.00 | 0.00 | 0.00 | 73 | 1013.9 |
| 20260831162348 | 77 | 110 | 1.0 | 1.0 | 0.00 | 0.00 | 0.00 | 74 | 1013.9 |
| 20260831161846 | 78 | 119 | 2.0 | 2.0 | 0.00 | 0.00 | 0.00 | 73 | 1013.7 |
| 20260831161343 | 77 | 31 | 1.0 | 2.0 | 0.00 | 0.00 | 0.00 | 73 | 1013.8 |
| 20260831160837 | 76 | 176 | 0.0 | 1.0 | 0.00 | 0.00 | 0.00 | 76 | 1013.8 |
| 20260831160332 | 77 | 32 | 3.0 | 3.0 | 0.00 | 0.00 | 0.00 | 74 | 1013.7 |
| 20260831155827 | 76 | 174 | 0.0 | 0.0 | 0.00 | 0.00 | 0.00 | 76 | 1013.8 |
| 20260831155327 | 76 | 186 | 0.0 | 0.0 | 0.00 | 0.00 | 0.00 | 76 | 1014.1 |
| 20260831154822 | 76 | 193 | 0.0 | 0.0 | 0.00 | 0.00 | 0.00 | 77 | 1013.9 |
| 20260831154319 | 75 | 183 | 0.0 | 0.0 | 0.00 | 0.00 | 0.00 | 78 | 1013.9 |
| 20260831153817 | 74 | 135 | 1.0 | 1.0 | 0.00 | 0.00 | 0.00 | 80 | 1013.8 |
| 20260831153313 | 73 | 111 | 0.0 | 0.0 | 0.00 | 0.00 | 0.00 | 82 | 1013.5 |
| 20260831152809 | 73 | 257 | 1.0 | 1.0 | 0.00 | 0.00 | 0.00 | 83 | 1013.9 |
| 20260831152306 | 73 | 188 | 1.0 | 1.0 | 0.00 | 0.00 | 0.00 | 83 | 1013.8 |
| 20260831151800 | 73 | 198 | 1.0 | 1.0 | 0.00 | 0.00 | 0.00 | 82 | 1013.8 |
| 20260831151259 | 72 | 216 | 1.0 | 2.0 | 0.00 | 0.00 | 0.00 | 84 | 1013.9 |
| 20260831150754 | 72 | 163 | 0.0 | 0.0 | 0.00 | 0.00 | 0.00 | 85 | 1013.7 |
| 20260831150250 | 72 | 197 | 1.0 | 1.0 | 0.00 | 0.00 | 0.00 | 86 | 1013.6 |
| 20260831145748 | 71 | 182 | 0.0 | 0.0 | 0.00 | 0.00 | 0.00 | 87 | 1013.6 |
| 20260831145245 | 71 | 205 | 1.0 | 2.0 | 0.00 | 0.00 | 0.00 | 87 | 1013.5 |
| 20260831144740 | 70 | 275 | 1.0 | 1.0 | 0.00 | 0.00 | 0.00 | 88 | 1013.6 |
| 20260831144239 | 70 | 157 | 0.0 | 0.0 | 0.00 | 0.00 | 0.00 | 89 | 1013.6 |
| 20260831143736 | 70 | 110 | 0.0 | 1.0 | 0.00 | 0.00 | 0.00 | 90 | 1013.7 |
| 20260831143231 | 70 | 113 | 1.0 | 1.0 | 0.00 | 0.00 | 0.00 | 90 | 1013.6 |
| 20260831142727 | 70 | 146 | 0.0 | 0.0 | 0.00 | 0.00 | 0.00 | 90 | 1013.4 |
| 20260831142222 | 69 | 160 | 0.0 | 0.0 | 0.00 | 0.00 | 0.00 | 90 | 1013.6 |
| 20260831141721 | 69 | 189 | 0.0 | 0.0 | 0.00 | 0.00 | 0.00 | 90 | 1013.4 |
| 20260831141217 | 69 | 124 | 1.0 | 1.0 | 0.00 | 0.00 | 0.00 | 91 | 1013.2 |